KD4WXI Weather Reports


Display with metric or nautical units.
time (UTC)temp
F
wind
direction
speed
MPH
gust
MPH
rain 1hr
in
rain 24hr
in
rain mn
in
humidity
%
barometer
mb
20260906075456 69 328 0.0 0.0 0.00 0.00 0.00 99 1012.1
20260906074951 68 322 0.0 0.0 0.00 0.00 0.00 99 1011.9
20260906074451 68 342 0.0 0.0 0.00 0.00 0.00 99 1011.9
20260906073949 68 343 0.0 0.0 0.00 0.00 0.00 99 1011.7
20260906073444 68 343 0.0 0.0 0.00 0.00 0.00 99 1011.8
20260906072940 69 342 0.0 0.0 0.00 0.00 0.00 99 1011.7
20260906072435 69 343 0.0 0.0 0.00 0.00 0.00 99 1011.8
20260906071931 69 343 0.0 0.0 0.00 0.00 0.00 99 1012.0
20260906071427 69 342 0.0 0.0 0.00 0.00 0.00 99 1011.7
20260906070923 69 342 0.0 0.0 0.00 0.00 0.00 99 1011.8
20260906070419 69 342 0.0 0.0 0.00 0.00 0.00 99 1012.0
20260906065915 69 342 0.0 0.0 0.00 0.00 0.00 99 1012.0
20260906065408 69 343 0.0 0.0 0.00 0.00 0.00 99 1012.2
20260906064905 69 344 0.0 0.0 0.00 0.00 0.00 99 1012.3
20260906064401 69 340 0.0 0.0 0.00 0.00 0.00 99 1012.1
20260906063900 69 340 0.0 0.0 0.00 0.00 0.00 99 1012.4
20260906063355 69 340 0.0 0.0 0.00 0.00 0.00 99 1012.4
20260906062850 69 340 0.0 0.0 0.00 0.00 0.00 99 1012.4
20260906062349 69 341 0.0 0.0 0.00 0.00 0.00 99 1012.6
20260906061845 69 340 0.0 0.0 0.00 0.00 0.00 99 1012.9
20260906061342 70 340 0.0 0.0 0.00 0.00 0.00 99 1012.8
20260906060836 70 340 0.0 0.0 0.00 0.00 0.00 99 1012.6
20260906060334 71 340 0.0 0.0 0.00 0.00 0.00 99 1012.6
20260906055829 70 341 0.0 0.0 0.00 0.00 0.00 99 1012.6
20260906055325 70 341 0.0 0.0 0.00 0.00 0.00 99 1012.7
20260906054820 70 341 0.0 0.0 0.00 0.00 0.00 99 1012.8
20260906054315 70 341 0.0 0.0 0.00 0.00 0.00 99 1012.7
20260906053812 70 341 0.0 0.0 0.00 0.00 0.00 99 1013.0
20260906053307 70 340 0.0 0.0 0.00 0.00 0.00 99 1012.9
20260906052802 71 340 0.0 0.0 0.00 0.00 0.00 99 1012.7
20260906052258 71 340 0.0 0.0 0.00 0.00 0.00 99 1012.9
20260906051755 71 340 0.0 0.0 0.00 0.00 0.00 99 1013.0
20260906051254 71 340 0.0 0.0 0.00 0.00 0.00 99 1012.6
20260906050750 70 341 0.0 0.0 0.00 0.00 0.00 99 1012.8
20260906050245 70 341 0.0 0.0 0.00 0.00 0.00 99 1013.0
20260906045744 70 341 0.0 0.0 0.00 0.00 0.00 99 1013.1
20260906045238 70 341 0.0 0.0 0.00 0.00 0.00 99 1013.0
20260906044734 70 330 0.0 0.0 0.00 0.00 0.00 99 1013.0
20260906044230 70 330 0.0 0.0 0.00 0.00 0.00 99 1013.1
20260906043726 70 330 0.0 0.0 0.00 0.00 0.00 99 1013.0
20260906043222 70 330 0.0 0.0 0.00 0.00 0.00 99 1013.0
20260906042721 70 330 0.0 0.0 0.00 0.00 0.00 99 1012.8
20260906042220 71 318 0.0 0.0 0.00 0.00 0.00 99 1013.2
20260906041716 70 345 0.0 0.0 0.00 0.00 0.00 99 1013.2
20260906041211 70 345 0.0 0.0 0.00 0.00 0.00 99 1013.4
20260906040707 70 345 0.0 0.0 0.00 0.00 0.00 99 1013.3
20260906040202 70 343 0.0 0.0 0.00 0.00 0.00 99 1013.1
20260906035658 71 337 0.0 0.0 0.00 0.20 0.20 99 1013.2
20260906035153 71 337 0.0 0.0 0.00 0.20 0.20 99 1013.4
20260906034653 71 337 0.0 0.0 0.00 0.20 0.20 99 1013.2
20260906034148 71 337 0.0 0.0 0.00 0.20 0.20 99 1013.4
20260906033644 70 331 0.0 0.0 0.00 0.20 0.20 99 1013.5
20260906033143 70 331 0.0 0.0 0.00 0.20 0.20 99 1013.3
20260906032640 70 331 0.0 0.0 0.00 0.20 0.20 99 1013.5
20260906032140 70 331 0.0 0.0 0.00 0.20 0.20 99 1013.5
20260906031635 71 332 0.0 0.0 0.00 0.20 0.20 99 1013.6
20260906031131 71 332 0.0 0.0 0.00 0.20 0.20 99 1013.4
20260906030630 71 332 0.0 0.0 0.00 0.20 0.20 99 1013.5
20260906030125 72 332 0.0 0.0 0.00 0.20 0.20 99 1013.3
20260906025624 72 332 0.0 0.0 0.00 0.20 0.20 99 1013.4
20260906025123 72 332 0.0 0.0 0.00 0.20 0.20 99 1013.2
20260906024618 71 333 0.0 0.0 0.00 0.20 0.20 99 1013.2
20260906024113 71 333 0.0 0.0 0.00 0.20 0.20 99 1013.2
20260906023610 71 333 0.0 0.0 0.00 0.20 0.20 99 1013.0
20260906023109 71 333 0.0 0.0 0.00 0.20 0.20 99 1013.2
20260906022604 71 325 0.0 0.0 0.00 0.20 0.20 99 1013.0
20260906022100 71 325 0.0 0.0 0.00 0.20 0.20 99 1012.9
20260906021556 71 333 0.0 0.0 0.00 0.20 0.20 99 1013.1
20260906021054 72 334 0.0 0.0 0.00 0.20 0.20 99 1013.0
20260906020554 72 334 0.0 0.0 0.00 0.20 0.20 99 1013.0
20260906020054 72 334 0.0 0.0 0.00 0.20 0.20 99 1013.1
20260906015554 72 334 0.0 0.0 0.00 0.20 0.20 99 1013.2
20260906015054 71 334 0.0 0.0 0.00 0.20 0.20 99 1013.2
20260906014554 72 333 0.0 0.0 0.00 0.20 0.20 99 1013.0
20260906014050 72 333 0.0 0.0 0.00 0.20 0.20 99 1012.8
20260906013545 72 333 0.0 0.0 0.00 0.20 0.20 99 1012.9
20260906013040 72 345 0.0 0.0 0.00 0.20 0.20 99 1012.8
20260906012535 71 345 0.0 0.0 0.00 0.20 0.20 99 1012.8
20260906012035 72 345 0.0 0.0 0.00 0.20 0.20 99 1012.7
20260906011531 73 350 0.0 0.0 0.00 0.20 0.20 99 1012.7
20260906011031 72 337 0.0 0.0 0.00 0.20 0.20 99 1012.4
20260906010526 72 337 0.0 0.0 0.00 0.20 0.20 99 1012.5
20260906010022 73 337 0.0 0.0 0.00 0.20 0.20 99 1012.5
20260906005521 73 336 0.0 0.0 0.00 0.20 0.20 99 1012.4
20260906005021 73 336 0.0 0.0 0.00 0.20 0.20 99 1012.1
20260906004520 73 336 0.0 0.0 0.00 0.20 0.20 99 1012.2
20260906004015 73 354 0.0 0.0 0.00 0.20 0.20 99 1012.4
20260906003511 74 354 0.0 0.0 0.00 0.20 0.20 99 1012.3
20260906003007 73 346 0.0 0.0 0.00 0.20 0.20 99 1012.2
20260906002507 73 346 0.0 0.0 0.00 0.20 0.20 99 1012.2
20260906002001 73 346 0.0 0.0 0.00 0.20 0.20 99 1012.3
20260906001458 74 346 0.0 0.0 0.00 0.20 0.20 99 1012.3
20260906000952 74 346 0.0 0.0 0.00 0.20 0.20 99 1012.0
20260906000448 74 346 0.0 0.0 0.00 0.20 0.20 98 1012.2
20260905235948 75 346 0.0 0.0 0.00 0.20 0.20 98 1012.1
20260905235442 75 347 0.0 0.0 0.00 0.20 0.20 97 1011.9
20260905234937 76 334 0.0 0.0 0.00 0.20 0.20 97 1012.0
20260905234433 77 313 0.0 0.0 0.00 0.20 0.20 97 1011.9
20260905233932 77 331 0.0 0.0 0.00 0.20 0.20 96 1011.8
20260905233428 77 332 0.0 0.0 0.00 0.20 0.20 95 1011.9
20260905232926 77 339 0.0 0.0 0.00 0.20 0.20 94 1012.0
20260905232423 77 340 0.0 0.0 0.00 0.20 0.20 93 1011.8
20260905231918 78 340 0.0 0.0 0.00 0.20 0.20 93 1012.0
20260905231414 78 340 0.0 0.0 0.00 0.20 0.20 92 1012.0
20260905230910 78 342 0.0 0.0 0.00 0.20 0.20 90 1011.8
20260905230408 79 329 0.0 0.0 0.00 0.20 0.20 89 1012.1
20260905225907 79 331 0.0 0.0 0.00 0.20 0.20 90 1011.8
20260905225402 79 335 0.0 0.0 0.00 0.20 0.20 89 1011.9
20260905224857 79 335 0.0 0.0 0.00 0.20 0.20 89 1011.9
20260905224353 79 335 0.0 0.0 0.00 0.20 0.20 88 1011.9
20260905223847 80 335 0.0 0.0 0.00 0.20 0.20 88 1011.8
20260905223346 80 335 0.0 0.0 0.00 0.20 0.20 88 1012.0
20260905222845 80 319 0.0 0.0 0.00 0.20 0.20 87 1012.0
20260905222344 80 329 0.0 0.0 0.00 0.20 0.20 88 1011.7
20260905221841 79 349 0.0 0.0 0.00 0.20 0.20 88 1011.7
20260905221337 79 333 0.0 0.0 0.00 0.20 0.20 91 1011.5
20260905220833 79 330 0.0 0.0 0.00 0.20 0.20 92 1011.6
20260905220329 79 329 0.0 0.0 0.00 0.20 0.20 91 1011.9
20260905215828 79 329 0.0 0.0 0.00 0.20 0.20 91 1011.8
20260905215324 79 328 0.0 0.0 0.00 0.20 0.20 90 1011.7
20260905214820 79 335 0.0 0.0 0.00 0.20 0.20 90 1011.8
20260905214315 78 323 0.0 0.0 0.00 0.20 0.20 93 1012.0
20260905213810 78 322 0.0 0.0 0.00 0.20 0.20 94 1011.9
20260905213307 78 355 1.0 1.0 0.00 0.20 0.20 95 1012.2
20260905212807 77 328 0.0 0.0 0.00 0.20 0.20 94 1012.2
20260905212306 77 319 0.0 0.0 0.00 0.20 0.20 95 1012.1
20260905211801 77 332 0.0 0.0 0.00 0.20 0.20 96 1012.4
20260905211256 77 314 0.0 0.0 0.00 0.20 0.20 96 1012.4
20260905210753 77 324 0.0 0.0 0.00 0.20 0.20 96 1012.5
20260905210252 76 334 0.0 0.0 0.00 0.20 0.20 96 1012.3
20260905205751 76 319 0.0 0.0 0.00 0.20 0.20 96 1012.5
20260905205246 75 355 0.0 0.0 0.00 0.20 0.20 96 1012.1
20260905204745 76 342 0.0 0.0 0.00 0.20 0.20 97 1012.3
20260905204242 75 320 0.0 0.0 0.00 0.20 0.20 96 1012.2
20260905203741 75 346 0.0 0.0 0.00 0.20 0.20 97 1012.1
20260905203236 75 317 0.0 0.0 0.00 0.20 0.20 96 1012.4
20260905202732 75 294 1.0 1.0 0.00 0.20 0.20 97 1012.3
20260905202227 75 330 0.0 0.0 0.00 0.20 0.20 96 1012.4
20260905201722 74 352 0.0 0.0 0.00 0.20 0.20 95 1012.2
20260905201216 75 353 0.0 0.0 0.00 0.20 0.20 96 1012.4
20260905200712 75 325 0.0 0.0 0.00 0.20 0.20 94 1012.9
20260905200207 74 327 0.0 0.0 0.00 0.20 0.20 95 1012.9
20260905195705 74 320 0.0 0.0 0.00 0.20 0.20 93 1013.2
20260905195200 74 349 0.0 0.0 0.00 0.20 0.20 96 1013.1
20260905194656 73 343 0.0 0.0 0.00 0.20 0.20 98 1013.4
20260905194156 73 323 0.0 0.0 0.00 0.20 0.20 98 1013.3
20260905193655 73 307 0.0 0.0 0.00 0.20 0.20 98 1013.1
20260905193151 72 12 0.0 0.0 0.00 0.20 0.20 99 1012.6
20260905192646 72 338 1.0 2.0 0.00 0.20 0.20 99 1012.8
20260905192143 72 57 1.0 2.0 0.00 0.20 0.20 99 1012.6
20260905191642 72 340 0.0 0.0 0.00 0.20 0.20 99 1012.4
20260905191140 72 338 0.0 0.0 0.00 0.20 0.20 99 1012.0
20260905190638 72 329 0.0 0.0 0.00 0.20 0.20 99 1011.6
20260905190138 72 337 0.0 0.0 0.00 0.20 0.20 99 1012.1
20260905185631 72 341 0.0 0.0 0.00 0.20 0.20 99 1012.1
20260905185126 71 332 0.0 1.0 0.00 0.20 0.20 99 1012.2
20260905184626 72 311 0.0 0.0 0.00 0.20 0.20 99 1012.1
20260905184125 72 324 0.0 1.0 0.07 0.20 0.20 98 1012.8
20260905183624 72 267 1.0 2.0 0.07 0.20 0.20 97 1013.4
20260905183120 71 258 2.0 2.0 0.12 0.19 0.19 96 1013.8
20260905182619 72 325 0.0 0.0 0.59 0.19 0.19 95 1013.9
20260905182120 71 342 3.0 3.0 1.02 0.17 0.17 94 1014.7
20260905181620 79 3 4.0 6.0 0.54 0.09 0.09 84 1014.6
20260905181119 90 109 5.0 8.0 0.00 0.00 0.00 57 1013.4
20260905180614 92 339 0.0 0.0 0.00 0.00 0.00 63 1012.5
20260905180109 92 342 0.0 1.0 0.00 0.00 0.00 61 1012.2
20260905175608 94 62 1.0 2.0 0.00 0.00 0.00 57 1012.7
20260905175104 95 295 1.0 1.0 0.00 0.00 0.00 55 1012.8
20260905174559 95 322 1.0 2.0 0.00 0.00 0.00 56 1012.8
20260905174054 95 281 1.0 1.0 0.00 0.00 0.00 55 1012.8
20260905173551 97 35 2.0 3.0 0.00 0.00 0.00 56 1012.9
20260905173046 97 316 0.0 0.0 0.00 0.00 0.00 52 1013.0
20260905172545 97 261 1.0 2.0 0.00 0.00 0.00 55 1012.8
20260905172040 96 350 0.0 1.0 0.00 0.00 0.00 55 1013.1
20260905171537 95 299 0.0 1.0 0.00 0.00 0.00 54 1013.3
20260905171032 96 6 0.0 1.0 0.00 0.00 0.00 53 1013.4
20260905170529 97 315 0.0 1.0 0.00 0.00 0.00 54 1013.5
20260905170024 98 305 0.0 0.0 0.00 0.00 0.00 52 1013.3
20260905165519 97 306 0.0 1.0 0.00 0.00 0.00 52 1013.5
20260905165014 97 287 1.0 2.0 0.00 0.00 0.00 54 1013.6
20260905164513 96 317 0.0 0.0 0.00 0.00 0.00 54 1013.8
20260905164008 96 277 0.0 1.0 0.00 0.00 0.00 54 1013.6
20260905163505 96 278 0.0 1.0 0.00 0.00 0.00 53 1013.5
20260905163000 96 319 1.0 1.0 0.00 0.00 0.00 60 1013.8
20260905162455 95 330 0.0 1.0 0.00 0.00 0.00 58 1014.0
20260905161950 95 313 0.0 0.0 0.00 0.00 0.00 59 1014.0
20260905161449 94 317 0.0 1.0 0.00 0.00 0.00 58 1014.3
20260905160948 94 4 3.0 5.0 0.00 0.00 0.00 57 1014.3
20260905160442 95 298 0.0 1.0 0.00 0.00 0.00 55 1014.5
20260905155941 95 307 0.0 0.0 0.00 0.00 0.00 61 1014.6
20260905155436 95 348 0.0 0.0 0.00 0.00 0.00 61 1014.3
20260905154935 95 330 0.0 1.0 0.00 0.00 0.00 56 1014.1
20260905154430 94 324 0.0 0.0 0.00 0.00 0.00 60 1014.3
20260905153926 94 271 2.0 2.0 0.00 0.00 0.00 62 1014.2
20260905153422 95 285 1.0 1.0 0.00 0.00 0.00 61 1014.1
20260905152922 93 309 0.0 1.0 0.00 0.00 0.00 63 1014.1
20260905152421 93 284 1.0 1.0 0.00 0.00 0.00 63 1014.2
20260905151916 93 33 0.0 1.0 0.00 0.00 0.00 62 1014.2
20260905151412 94 251 1.0 1.0 0.00 0.00 0.00 62 1014.1
20260905150907 93 292 1.0 1.0 0.00 0.00 0.00 63 1014.1
20260905150406 93 309 0.0 0.0 0.00 0.00 0.00 62 1014.7
20260905145904 93 321 0.0 0.0 0.00 0.00 0.00 62 1014.5
20260905145404 93 0 0.0 0.0 0.00 0.00 0.00 65 1014.3
20260905144903 92 313 0.0 1.0 0.00 0.00 0.00 67 1014.5
20260905144359 92 335 0.0 0.0 0.00 0.00 0.00 64 1014.7
20260905143857 91 256 0.0 0.0 0.00 0.00 0.00 66 1014.6
20260905143352 91 317 0.0 0.0 0.00 0.00 0.00 65 1014.7
20260905142851 90 319 0.0 0.0 0.00 0.00 0.00 67 1014.5
20260905142350 89 319 0.0 0.0 0.00 0.00 0.00 70 1014.7
20260905141846 89 334 0.0 0.0 0.00 0.00 0.00 68 1014.6
20260905141341 89 320 0.0 0.0 0.00 0.00 0.00 70 1014.3
20260905140837 88 321 0.0 1.0 0.00 0.00 0.00 73 1014.2
20260905140337 87 315 1.0 1.0 0.00 0.00 0.00 73 1014.5
20260905135836 87 321 0.0 0.0 0.00 0.00 0.00 74 1014.3
20260905135332 88 322 0.0 0.0 0.00 0.00 0.00 70 1014.6
20260905134828 88 322 0.0 0.0 0.00 0.00 0.00 72 1014.2
20260905134326 86 328 0.0 0.0 0.00 0.00 0.00 74 1014.7
20260905133826 86 320 0.0 0.0 0.00 0.00 0.00 75 1014.6
20260905133322 86 330 0.0 0.0 0.00 0.00 0.00 73 1014.7
20260905132821 86 332 0.0 0.0 0.00 0.00 0.00 76 1014.9
20260905132316 86 328 0.0 0.0 0.00 0.00 0.00 75 1014.6
20260905131810 85 309 0.0 0.0 0.00 0.00 0.00 76 1014.7
20260905131306 86 336 0.0 0.0 0.00 0.00 0.00 76 1014.7
20260905130801 84 332 0.0 0.0 0.00 0.00 0.00 76 1014.8
20260905130300 84 333 0.0 0.0 0.00 0.00 0.00 77 1015.1
20260905125755 84 338 0.0 0.0 0.00 0.00 0.00 78 1014.9
20260905125250 82 333 0.0 0.0 0.00 0.00 0.00 79 1014.7
20260905124747 80 334 0.0 0.0 0.00 0.00 0.00 84 1015.1
20260905124242 78 327 0.0 0.0 0.00 0.00 0.00 88 1014.8
20260905123737 78 322 1.0 1.0 0.00 0.00 0.00 88 1014.8
20260905123235 77 329 0.0 0.0 0.00 0.00 0.00 89 1014.8
20260905122734 78 307 0.0 0.0 0.00 0.00 0.00 87 1014.8
20260905122228 78 357 0.0 0.0 0.00 0.00 0.00 87 1014.8
20260905121723 78 357 0.0 0.0 0.00 0.00 0.00 87 1014.9
20260905121220 76 356 0.0 0.0 0.00 0.00 0.00 91 1014.7
20260905120718 75 356 0.0 0.0 0.00 0.00 0.00 91 1014.7
20260905120214 74 344 0.0 0.0 0.00 0.00 0.00 94 1014.7
20260905115713 73 336 0.0 0.0 0.00 0.00 0.00 96 1014.9
20260905115208 72 336 0.0 0.0 0.00 0.00 0.00 99 1015.0
20260905114703 71 336 0.0 0.0 0.00 0.00 0.00 99 1014.9
20260905114201 71 336 0.0 0.0 0.00 0.00 0.00 99 1014.6
20260905113701 70 335 0.0 0.0 0.00 0.00 0.00 99 1014.6
20260905113157 69 334 0.0 0.0 0.00 0.00 0.00 99 1014.5
20260905112656 69 334 0.0 0.0 0.00 0.00 0.00 99 1014.7
20260905112152 69 333 0.0 0.0 0.00 0.00 0.00 99 1014.2
20260905111651 69 333 0.0 0.0 0.00 0.00 0.00 99 1014.2
20260905111151 70 333 0.0 0.0 0.00 0.00 0.00 99 1014.1
20260905110650 70 333 0.0 0.0 0.00 0.00 0.00 99 1013.9
20260905110145 69 333 0.0 0.0 0.00 0.00 0.00 99 1014.1
20260905105640 68 333 0.0 0.0 0.00 0.00 0.00 99 1014.1
20260905105139 69 333 0.0 0.0 0.00 0.00 0.00 99 1013.8
20260905104635 69 333 0.0 0.0 0.00 0.00 0.00 99 1013.9
20260905104130 70 333 0.0 0.0 0.00 0.00 0.00 99 1013.9
20260905103625 70 333 0.0 0.0 0.00 0.00 0.00 99 1014.0
20260905103121 70 333 0.0 0.0 0.00 0.00 0.00 99 1014.0
20260905102617 70 334 0.0 0.0 0.00 0.00 0.00 99 1014.0
20260905102113 70 334 0.0 0.0 0.00 0.00 0.00 99 1013.8
20260905101611 69 324 0.0 0.0 0.00 0.00 0.00 99 1014.0
20260905101110 69 321 0.0 0.0 0.00 0.00 0.00 99 1013.7
20260905100606 70 321 0.0 0.0 0.00 0.00 0.00 99 1013.7
20260905100101 70 318 0.0 0.0 0.00 0.00 0.00 99 1013.7
20260905095555 70 313 0.0 0.0 0.00 0.00 0.00 99 1013.6
20260905095050 70 338 0.0 0.0 0.00 0.00 0.00 99 1013.7
20260905094546 70 338 0.0 0.0 0.00 0.00 0.00 99 1013.7
20260905094045 70 338 0.0 0.0 0.00 0.00 0.00 99 1013.6
20260905093544 70 338 0.0 0.0 0.00 0.00 0.00 99 1013.7
20260905093042 70 338 0.0 0.0 0.00 0.00 0.00 99 1013.5
20260905092535 70 338 0.0 0.0 0.00 0.00 0.00 99 1013.6
20260905092031 70 338 0.0 0.0 0.00 0.00 0.00 99 1013.4
20260905091530 70 338 0.0 0.0 0.00 0.00 0.00 99 1013.7
20260905091025 70 338 0.0 0.0 0.00 0.00 0.00 99 1013.5
20260905090524 70 333 0.0 0.0 0.00 0.00 0.00 99 1013.6
20260905090020 70 333 0.0 0.0 0.00 0.00 0.00 99 1013.6
20260905085518 70 334 0.0 0.0 0.00 0.00 0.00 99 1013.7
20260905085015 70 334 0.0 0.0 0.00 0.00 0.00 99 1013.8
20260905084509 70 332 0.0 0.0 0.00 0.00 0.00 99 1013.8
20260905084009 70 331 0.0 0.0 0.00 0.00 0.00 99 1013.7
20260905083504 71 331 0.0 0.0 0.00 0.00 0.00 99 1013.8
20260905083000 72 322 0.0 0.0 0.00 0.00 0.00 99 1013.7
20260905082455 71 331 0.0 0.0 0.00 0.00 0.00 99 1014.0
20260905081950 71 340 0.0 0.0 0.00 0.00 0.00 99 1014.2
20260905081445 71 340 0.0 0.0 0.00 0.00 0.00 99 1014.0
20260905080944 71 341 0.0 0.0 0.00 0.00 0.00 99 1014.2
20260905080439 71 341 0.0 0.0 0.00 0.00 0.00 99 1014.1
20260905075938 71 335 0.0 0.0 0.00 0.00 0.00 99 1014.1